Wind_Speed
4 3 3 3 3 3 4 4 5 5 6 7 8 9 10 10 11 12 13 13 14 15 15 16 17 18 18 18 19 19 20 20 21 21 21 21 21 21
5 4 4 4 4 5 5 6 6 6 7 8 9 9 10 11 12 13 14 15 15 16 17 18 18 19 20 20 21 21 21 21 22 22 23 23 23 23
5 5 6 6 7 7 7 8 8 8 9 10 10 11 12 12 13 14 15 16 17 18 19 19 20 21 21 22 22 23 23 23 24 24 24 24 25 25
7 8 8 8 8 9 9 9 10 10 11 12 12 13 14 14 15 16 17 18 19 19 21 22 22 22 23 24 24 25 25 25 26 26 26 27 27 27
9 9 10 10 10 10 10 11 12 13 13 14 15 15 16 17 17 18 20 21 22 22 23 23 24 25 25 26 27 27 28 28 29 29 29 30 30 31
11 11 12 11 12 12 13 13 14 15 16 16 17 18 19 19 20 21 22 23 23 24 25 25 26 27 28 29 30 30 31 32 32 32 33 33 33 34
13 14 14 14 14 14 15 16 16 17 18 19 19 20 21 22 22 23 24 25 26 26 27 28 29 30 30 31 32 32 33 34 35 35 36 36 37 36
15 15 16 16 16 17 17 18 19 20 20 21 21 22 23 24 25 26 27 27 28 28 28 29 30 31 31 32 33 34 35 36 37 38 38 39 39 39
16 17 17 17 18 18 19 20 21 21 22 23 23 24 25 26 26 27 28 28 29 29 29 30 31 33 34 34 35 36 37 38 38 39 39 39 40 41
19 19 19 19 19 20 21 21 22 22 23 24 24 25 26 27 27 28 28 29 29 30 31 32 33 34 35 36 37 38 39 39 40 40 40 41 42 42
20 20 20 21 21 21 22 22 23 24 25 25 26 27 28 28 29 30 30 31 31 32 34 34 35 36 37 38 39 40 40 41 41 41 42 42 43 43
22 22 22 23 23 23 23 24 25 26 26 27 28 28 29 30 31 32 32 33 33 34 36 37 37 39 39 40 41 41 41 42 43 43 44 44 45 45
23 24 24 25 25 26 25 26 27 27 28 29 30 30 32 33 34 35 35 36 36 37 39 39 40 41 41 41 42 43 43 43 44 45 46 46 46 47
24 25 26 26 27 27 28 28 28 29 30 31 32 33 34 35 36 36 37 38 39 40 41 42 42 43 43 42 42 42 43 44 45 46 47 47 48 48
26 26 27 27 28 29 29 30 31 32 33 33 34 35 36 37 38 39 40 41 42 42 43 44 44 45 45 44 43 43 44 45 46 47 48 48 49 49
27 28 28 29 30 31 32 33 33 34 35 36 37 38 39 40 41 41 42 43 43 44 45 46 46 46 46 46 46 45 46 47 48 49 50 50 51 51
29 29 30 31 32 32 33 34 35 36 37 37 38 39 40 41 42 43 44 44 44 45 46 47 47 48 48 48 48 49 49 50 50 51 52 52 52 53
30 30 31 31 32 34 35 36 37 38 38 39 40 41 42 43 44 45 46 46 46 47 48 48 49 50 50 50 51 52 52 52 52 53 53 53 53 54
31 32 33 33 34 35 36 37 38 39 41 42 43 44 44 45 46 47 48 48 48 49 50 51 52 53 53 52 52 53 54 54 54 54 55 55 55 55
33 34 34 35 37 38 39 39 40 41 43 44 45 46 47 47 48 49 49 50 51 52 53 54 55 56 56 55 54 54 55 55 55 55 55 56 56 57
35 36 37 38 39 40 41 42 43 44 46 47 47 48 49 50 50 51 52 53 54 55 56 56 57 58 58 57 56 55 55 56 57 57 58 58 57 57
37 39 40 40 41 42 43 44 46 46 47 48 49 50 51 52 52 53 54 55 56 57 58 57 58 58 58 58 57 57 57 58 59 59 59 60 59 58
39 40 41 42 43 44 45 46 47 47 48 49 50 52 53 54 55 56 57 58 58 58 58 58 58 58 58 59 59 59 59 59 59 58 58 58 58 57
Wind_Direction
340 334 333 319 303 296 288 287 285 281 277 279 281 280 280 281 280 278 277 278 275 271 273 275 276 277 279 278 278 277 277 277 278 279 280 281 279 280
335 328 326 325 319 304 295 293 289 284 284 289 291 289 285 283 280 281 282 283 281 278 278 278 277 277 278 277 278 278 279 280 280 279 280 280 281 281
323 315 309 306 302 301 299 295 292 288 289 291 292 289 287 287 285 284 286 285 284 283 283 283 281 281 281 280 280 280 279 280 280 280 281 281 281 280
312 308 307 305 300 295 292 290 290 289 288 291 294 298 293 291 289 287 287 287 287 287 284 284 284 283 283 282 283 283 282 281 281 281 281 281 281 281
305 305 305 304 298 294 292 292 293 292 289 290 294 295 296 293 291 290 289 289 288 287 287 285 285 285 285 285 284 284 283 282 282 281 281 281 281 281
300 300 302 300 295 294 294 293 293 293 292 292 292 293 294 293 293 293 293 292 292 291 289 286 285 284 285 285 285 285 284 283 283 282 282 282 281 282
294 295 297 297 295 295 294 293 293 292 292 293 292 292 292 293 292 292 292 292 292 292 291 289 287 286 285 285 285 285 285 284 283 283 283 282 282 282
291 292 293 293 293 293 294 294 294 293 293 294 294 293 293 293 293 292 292 292 292 291 291 290 289 288 288 288 288 287 286 286 285 284 284 283 282 282
291 292 292 291 291 292 294 295 295 295 294 295 295 295 294 294 294 294 293 293 293 292 291 292 292 291 290 290 290 290 289 287 287 285 284 283 282 281
291 292 291 291 291 292 293 295 296 296 296 296 297 299 299 298 297 297 296 296 295 294 293 293 293 293 294 293 292 292 290 289 288 287 286 284 283 282
291 292 292 292 291 291 291 293 294 295 296 297 297 298 298 298 298 298 297 296 296 296 295 295 294 294 294 294 293 292 291 289 288 287 286 286 285 284
290 291 291 291 291 291 292 293 294 295 296 296 297 297 298 298 298 298 298 296 296 296 296 296 296 295 295 294 293 292 290 289 288 288 288 288 287 286
290 290 290 291 291 291 292 293 294 295 296 296 297 297 297 297 298 298 298 297 297 297 297 297 297 296 296 295 294 292 290 289 289 289 289 288 288 288
290 290 290 292 292 293 293 293 294 295 296 297 297 297 297 298 298 298 298 298 299 299 298 298 298 298 297 296 294 293 292 291 291 290 290 289 289 289
289 291 291 292 293 293 294 294 295 295 296 296 297 298 298 298 298 298 298 299 299 299 299 299 299 298 298 297 296 294 293 291 291 291 291 290 290 290
289 290 291 291 291 293 294 294 295 296 296 296 297 298 298 298 298 298 298 299 299 300 299 299 298 298 297 297 296 295 294 293 291 291 291 290 290 290
289 290 291 292 292 293 294 296 296 297 297 298 298 298 298 298 298 299 299 299 300 299 299 299 299 298 298 297 296 296 296 295 293 292 291 290 290 290
289 289 290 292 293 294 295 295 296 297 297 298 298 299 299 299 299 299 298 299 299 299 298 298 298 298 297 297 296 296 296 295 294 294 293 292 291 290
290 290 291 292 293 293 294 295 295 296 297 298 298 299 299 299 299 299 299 299 299 298 298 298 298 297 296 295 295 296 296 294 294 293 293 293 292 292
290 291 292 293 293 294 294 295 296 296 297 298 298 299 299 298 299 299 299 299 298 298 298 298 297 297 297 296 295 296 295 295 294 293 293 293 293 292
290 291 292 293 294 294 295 296 296 297 297 298 298 298 299 298 298 298 298 298 299 298 298 298 297 297 297 296 296 296 295 295 295 294 294 293 293 292
292 292 292 293 294 295 295 296 297 297 297 297 298 298 298 298 298 298 298 299 299 299 299 298 298 297 297 296 296 295 295 294 294 294 294 294 294 293
294 294 294 295 295 296 297 297 298 298 298 298 298 298 299 299 298 298 299 299 299 299 299 299 298 298 298 297 296 296 295 295 294 293 293 293 293 293
Height
5865 5864 5863 5863 5862 5862 5862 5862 5862 5862 5861 5861 5861 5860 5859 5858 5858 5858 5857 5857 5857 5857 5857 5856 5856 5856 5856 5855 5855 5854 5853 5853 5852 5851 5851 5850 5849 5848
5865 5864 5863 5862 5862 5861 5861 5861 5860 5860 5860 5859 5858 5857 5856 5855 5854 5854 5854 5854 5853 5853 5853 5852 5852 5851 5851 5850 5850 5849 5848 5848 5847 5846 5845 5844 5843 5843
5864 5863 5862 5862 5861 5860 5860 5859 5859 5858 5858 5857 5856 5854 5853 5851 5850 5850 5850 5850 5849 5849 5848 5847 5847 5846 5846 5845 5844 5843 5843 5842 5841 5840 5839 5838 5837 5836
5864 5863 5862 5860 5859 5859 5858 5857 5856 5856 5855 5854 5853 5851 5850 5848 5847 5847 5846 5845 5845 5844 5843 5842 5841 5841 5840 5839 5838 5837 5836 5835 5834 5833 5832 5831 5830 5829
5862 5861 5860 5859 5858 5857 5856 5855 5854 5853 5852 5851 5850 5848 5847 5845 5844 5843 5842 5841 5840 5838 5837 5836 5835 5834 5834 5833 5831 5830 5829 5828 5827 5826 5825 5823 5822 5821
5860 5859 5858 5857 5855 5854 5853 5852 5851 5850 5848 5847 5846 5844 5843 5841 5840 5838 5836 5835 5834 5832 5831 5829 5828 5827 5826 5825 5824 5822 5821 5820 5818 5817 5816 5815 5813 5812
5857 5856 5855 5854 5852 5851 5850 5849 5847 5846 5845 5843 5842 5840 5838 5836 5835 5833 5831 5829 5827 5826 5824 5822 5821 5819 5818 5816 5815 5813 5812 5810 5809 5807 5806 5804 5803 5802
5854 5853 5851 5850 5849 5848 5846 5845 5843 5842 5840 5838 5837 5835 5833 5831 5829 5827 5825 5823 5821 5819 5817 5814 5812 5810 5808 5807 5805 5803 5801 5799 5798 5796 5795 5793 5792 5790
5850 5849 5847 5846 5844 5843 5842 5840 5839 5837 5835 5833 5831 5829 5827 5825 5823 5820 5818 5815 5813 5811 5809 5807 5804 5801 5799 5797 5794 5792 5790 5788 5786 5784 5782 5781 5779 5777
5845 5844 5843 5841 5840 5838 5837 5835 5833 5831 5829 5828 5825 5823 5820 5818 5816 5813 5811 5808 5806 5803 5800 5798 5795 5793 5789 5786 5784 5781 5779 5776 5774 5772 5769 5768 5766 5764
5840 5839 5837 5836 5835 5833 5831 5829 5827 5825 5823 5821 5819 5816 5813 5811 5808 5806 5803 5800 5798 5795 5791 5789 5786 5783 5780 5776 5773 5769 5766 5764 5761 5759 5756 5754 5752 5750
5835 5833 5832 5830 5829 5827 5825 5823 5821 5819 5816 5814 5811 5809 5806 5803 5800 5797 5794 5791 5788 5786 5782 5779 5775 5772 5769 5766 5761 5758 5754 5751 5748 5746 5743 5740 5738 5736
5829 5827 5826 5824 5822 5820 5819 5817 5814 5812 5809 5807 5804 5801 5798 5795 5791 5788 5785 5782 5779 5775 5771 5768 5764 5760 5757 5754 5750 5745 5741 5738 5735 5732 5729 5726 5723 5721
5823 5821 5819 5817 5815 5813 5811 5809 5807 5804 5802 5799 5796 5793 5789 5786 5782 5778 5775 5771 5768 5764 5759 5755 5752 5748 5744 5741 5737 5733 5729 5725 5721 5718 5714 5711 5708 5705
5816 5814 5812 5810 5808 5805 5803 5801 5798 5796 5793 5790 5787 5783 5780 5776 5772 5768 5764 5760 5756 5751 5747 5743 5739 5735 5731 5727 5724 5720 5716 5712 5707 5703 5700 5696 5693 5689
5808 5806 5804 5802 5800 5797 5795 5792 5789 5787 5783 5780 5777 5773 5769 5765 5761 5757 5753 5749 5745 5740 5734 5730 5725 5721 5717 5713 5709 5706 5701 5697 5694 5689 5685 5681 5677 5673
5800 5798 5796 5794 5791 5789 5786 5783 5780 5777 5773 5770 5766 5763 5758 5754 5750 5746 5741 5737 5733 5728 5723 5718 5712 5708 5703 5699 5695 5691 5686 5682 5677 5673 5669 5665 5662 5657
5792 5790 5787 5785 5782 5780 5777 5774 5770 5767 5763 5759 5755 5751 5747 5743 5738 5734 5729 5724 5720 5715 5710 5705 5700 5695 5690 5685 5680 5675 5671 5666 5661 5656 5651 5648 5645 5640
5783 5781 5778 5776 5773 5770 5767 5764 5760 5756 5752 5748 5744 5740 5735 5730 5726 5721 5716 5711 5706 5701 5696 5690 5685 5679 5675 5671 5667 5659 5654 5649 5644 5640 5635 5630 5627 5623
5774 5772 5769 5766 5763 5760 5756 5753 5749 5745 5741 5736 5732 5727 5722 5717 5712 5707 5702 5697 5692 5686 5681 5675 5668 5663 5657 5653 5650 5646 5637 5631 5626 5622 5618 5613 5609 5605
5765 5762 5759 5756 5752 5749 5745 5741 5737 5733 5728 5724 5719 5714 5708 5703 5698 5693 5687 5682 5676 5671 5665 5659 5652 5646 5640 5635 5632 5628 5622 5615 5608 5603 5599 5595 5591 5587
5754 5751 5748 5744 5741 5737 5733 5729 5724 5720 5715 5710 5705 5699 5694 5688 5683 5677 5672 5666 5660 5654 5648 5642 5635 5629 5623 5618 5613 5610 5605 5599 5592 5585 5579 5574 5570 5567
5743 5740 5736 5732 5728 5724 5720 5716 5711 5706 5701 5696 5690 5684 5679 5673 5667 5661 5655 5649 5643 5637 5631 5625 5619 5612 5606 5600 5595 5590 5585 5580 5575 5570 5565 5557 5552 5548